Location: Knowlton
(51.2333°N, 1.2667°E)
Time: 04:18:38
(UTC+00:00)

Cosmos 44 - Pass Details

Date: 18 April 2021
Orbit: 571 x 791 km, 65.1° (Epoch: 06 May)

Event Time Altitude Azimuth Distance (km) Brightness Sun altitude
Rises 20:49:46 0° 221° (SW) 3,121 6.7 -16.0°
Reaches altitude 10° 20:52:04 10° 222° (SW) 2,235 5.9 -16.3°
Maximum altitude 20:57:14 84° 311° (NW) 774 3.5 -16.8°
Drops below altitude 10° 21:02:41 10° 41° (NE) 2,349 6.1 -17.4°
Sets 21:05:09 0° 42° (NE) 3,292 6.8 -17.7°
